Вернуться в каталог

THORAD AGENA D DEB

АктивенLEO
NORAD 4174·DEBRIS·🇺🇸 United States

Запущен Sep 30, 1969 с Vandenberg Space Force Base

Loading…

Ближайшие Пролёты (ближайшие 24 часа)

TLE

СвежийSource: Space-Track

Эпоха: Sep 13, 2026, 21:19 UTC

1  4174U 69082AS  26256.88875150  .00000410  00000-0  16218-3 0  9990
2  4174  69.9885  97.4652 0044969 200.8158 159.1138 14.35157685954564

Отслеживайте THORAD AGENA D DEB в реальном времени с AllMySat

Download on the App Store